TimeEDT,TemperatureF,Dew PointF,Humidity,Sea Level PressureIn,VisibilityMPH,Wind Direction,Wind SpeedMPH,Gust SpeedMPH,PrecipitationIn,Events,Conditions,WindDirDegrees,DateUTC
12:15 AM,46.4,39.2,76,30.38,10.0,Calm,Calm,-,N/A,,Clear,0,2013-05-04 04:15:00
12:35 AM,44.6,39.2,81,30.38,10.0,Calm,Calm,-,N/A,,Clear,0,2013-05-04 04:35:00
12:55 AM,44.6,39.2,81,30.38,10.0,Calm,Calm,-,N/A,,Clear,0,2013-05-04 04:55:00
1:15 AM,44.6,39.2,81,30.38,10.0,Calm,Calm,-,N/A,,Clear,0,2013-05-04 05:15:00
1:35 AM,41.0,35.6,81,30.37,10.0,Calm,Calm,-,N/A,,Clear,0,2013-05-04 05:35:00
1:55 AM,42.8,39.2,87,30.37,10.0,Calm,Calm,-,N/A,,Clear,0,2013-05-04 05:55:00
2:15 AM,39.2,35.6,87,30.37,10.0,North,4.6,-,N/A,,Clear,360,2013-05-04 06:15:00
2:35 AM,42.8,37.4,81,30.36,10.0,North,5.8,-,N/A,,Clear,10,2013-05-04 06:35:00
2:55 AM,39.2,37.4,93,30.36,10.0,Calm,Calm,-,N/A,,Clear,0,2013-05-04 06:55:00
3:15 AM,41.0,37.4,87,30.36,10.0,North,6.9,-,N/A,,Clear,360,2013-05-04 07:15:00
3:35 AM,41.0,37.4,87,30.36,10.0,North,5.8,-,N/A,,Clear,360,2013-05-04 07:35:00
3:55 AM,39.2,37.4,93,30.36,10.0,North,4.6,-,N/A,,Clear,360,2013-05-04 07:55:00
4:15 AM,39.2,35.6,87,30.36,10.0,NNE,4.6,-,N/A,,Clear,20,2013-05-04 08:15:00
4:35 AM,42.8,37.4,81,30.36,10.0,Calm,Calm,-,N/A,,Clear,0,2013-05-04 08:35:00
4:55 AM,42.8,35.6,76,30.36,10.0,NE,3.5,-,N/A,,Clear,40,2013-05-04 08:55:00
5:15 AM,41.0,35.6,81,30.36,10.0,NNE,5.8,-,N/A,,Clear,30,2013-05-04 09:15:00
5:35 AM,39.2,35.6,87,30.37,10.0,NNE,3.5,-,N/A,,Clear,30,2013-05-04 09:35:00
5:55 AM,37.4,33.8,87,30.37,10.0,Calm,Calm,-,N/A,,Clear,0,2013-05-04 09:55:00
6:16 AM,37.4,35.6,93,30.37,10.0,Calm,Calm,-,N/A,,Clear,0,2013-05-04 10:16:00
6:35 AM,41.0,37.4,87,30.38,10.0,Calm,Calm,-,N/A,,Clear,0,2013-05-04 10:35:00
6:55 AM,42.8,39.2,87,30.38,10.0,NNE,4.6,-,N/A,,Clear,20,2013-05-04 10:55:00
7:15 AM,44.6,37.4,76,30.38,10.0,East,3.5,-,N/A,,Clear,80,2013-05-04 11:15:00
7:35 AM,46.4,35.6,66,30.38,10.0,NNE,4.6,-,N/A,,Clear,30,2013-05-04 11:35:00
7:55 AM,46.4,37.4,71,30.39,10.0,Calm,Calm,-,N/A,,Clear,0,2013-05-04 11:55:00
8:15 AM,46.4,37.4,71,30.38,10.0,ENE,3.5,-,N/A,,Clear,70,2013-05-04 12:15:00
8:35 AM,48.2,35.6,62,30.38,10.0,NNE,4.6,-,N/A,,Clear,30,2013-05-04 12:35:00
8:55 AM,48.2,37.4,66,30.38,10.0,North,3.5,-,N/A,,Clear,360,2013-05-04 12:55:00
9:15 AM,50.0,37.4,62,30.37,10.0,North,9.2,-,N/A,,Clear,10,2013-05-04 13:15:00
9:35 AM,51.8,35.6,54,30.37,10.0,NNE,5.8,-,N/A,,Clear,20,2013-05-04 13:35:00
9:55 AM,51.8,37.4,58,30.37,10.0,East,4.6,-,N/A,,Clear,90,2013-05-04 13:55:00
10:15 AM,53.6,37.4,54,30.37,10.0,NE,4.6,-,N/A,,Clear,40,2013-05-04 14:15:00
10:35 AM,53.6,37.4,54,30.36,10.0,NNE,3.5,-,N/A,,Clear,30,2013-05-04 14:35:00
10:55 AM,55.4,37.4,51,30.35,10.0,NNE,6.9,-,N/A,,Clear,20,2013-05-04 14:55:00
11:15 AM,57.2,35.6,44,30.35,10.0,NNE,11.5,-,N/A,,Clear,30,2013-05-04 15:15:00
11:35 AM,59.0,37.4,45,30.34,10.0,ENE,8.1,-,N/A,,Clear,70,2013-05-04 15:35:00
11:55 AM,60.8,37.4,42,30.34,10.0,NE,4.6,-,N/A,,Clear,50,2013-05-04 15:55:00
12:15 PM,60.8,35.6,39,30.33,10.0,NE,4.6,-,N/A,,Clear,50,2013-05-04 16:15:00
12:36 PM,60.8,32.0,34,30.32,-9999.0,North,4.6,-,N/A,,Clear,10,2013-05-04 16:36:00
12:55 PM,62.6,30.2,30,30.32,-9999.0,North,5.8,-,N/A,,Clear,10,2013-05-04 16:55:00
1:15 PM,62.6,28.4,27,30.32,-9999.0,NE,8.1,-,N/A,,Clear,40,2013-05-04 17:15:00
1:35 PM,64.4,28.4,26,30.31,-9999.0,ENE,4.6,-,N/A,,Clear,70,2013-05-04 17:35:00
1:55 PM,64.4,26.6,24,30.30,10.0,NNE,4.6,-,N/A,,Clear,30,2013-05-04 17:55:00
2:15 PM,66.2,26.6,23,30.29,10.0,ESE,5.8,-,N/A,,Clear,120,2013-05-04 18:15:00
2:35 PM,66.2,28.4,24,30.29,-9999.0,ENE,4.6,-,N/A,,Clear,60,2013-05-04 18:35:00
2:55 PM,68.0,30.2,24,30.28,-9999.0,ENE,5.8,-,N/A,,Clear,60,2013-05-04 18:55:00
3:15 PM,66.2,26.6,23,30.28,-9999.0,Calm,Calm,-,N/A,,Clear,0,2013-05-04 19:15:00
3:35 PM,68.0,26.6,21,30.27,-9999.0,East,5.8,-,N/A,,Clear,100,2013-05-04 19:35:00
3:55 PM,68.0,26.6,21,30.26,-9999.0,Calm,Calm,-,N/A,,Clear,0,2013-05-04 19:55:00
4:15 PM,68.0,26.6,21,30.26,-9999.0,ENE,4.6,-,N/A,,Clear,60,2013-05-04 20:15:00
4:35 PM,68.0,24.8,20,30.25,-9999.0,Calm,Calm,-,N/A,,Clear,0,2013-05-04 20:35:00
4:55 PM,64.4,39.2,40,30.26,-9999.0,South,8.1,-,N/A,,Clear,180,2013-05-04 20:55:00
5:15 PM,62.6,39.2,42,30.27,-9999.0,South,4.6,17.3,N/A,,Clear,170,2013-05-04 21:15:00
5:35 PM,60.8,37.4,42,30.27,-9999.0,South,8.1,17.3,N/A,,Clear,180,2013-05-04 21:35:00
5:55 PM,57.2,37.4,48,30.28,-9999.0,South,8.1,-,N/A,,Clear,180,2013-05-04 21:55:00
6:15 PM,57.2,37.4,48,30.29,-9999.0,South,8.1,-,N/A,,Clear,170,2013-05-04 22:15:00
6:35 PM,55.4,37.4,51,30.29,10.0,South,6.9,-,N/A,,Clear,170,2013-05-04 22:35:00
6:55 PM,53.6,37.4,54,30.29,10.0,South,8.1,-,N/A,,Clear,190,2013-05-04 22:55:00
7:15 PM,51.8,35.6,54,30.30,10.0,South,8.1,-,N/A,,Clear,180,2013-05-04 23:15:00
7:35 PM,50.0,35.6,58,30.30,10.0,South,5.8,-,N/A,,Clear,180,2013-05-04 23:35:00
7:55 PM,48.2,35.6,62,30.30,10.0,South,4.6,-,N/A,,Clear,190,2013-05-04 23:55:00
8:15 PM,48.2,35.6,62,30.31,10.0,SSW,4.6,-,N/A,,Clear,200,2013-05-05 00:15:00
8:35 PM,46.4,33.8,62,30.31,10.0,SSW,4.6,-,N/A,,Clear,200,2013-05-05 00:35:00
8:55 PM,46.4,33.8,62,30.32,10.0,SSW,4.6,-,N/A,,Clear,200,2013-05-05 00:55:00
9:15 PM,44.6,33.8,66,30.32,10.0,SSW,3.5,-,N/A,,Clear,200,2013-05-05 01:15:00
9:35 PM,44.6,33.8,66,30.33,10.0,SSW,4.6,-,N/A,,Clear,200,2013-05-05 01:35:00
9:55 PM,44.6,33.8,66,30.33,10.0,SSW,4.6,-,N/A,,Clear,200,2013-05-05 01:55:00
10:15 PM,42.8,33.8,70,30.33,10.0,South,4.6,-,N/A,,Clear,190,2013-05-05 02:15:00
10:35 PM,42.8,33.8,70,30.33,10.0,South,4.6,-,N/A,,Clear,190,2013-05-05 02:35:00
10:55 PM,41.0,33.8,76,30.32,10.0,SSW,4.6,-,N/A,,Clear,200,2013-05-05 02:55:00
11:15 PM,39.2,33.8,81,30.32,10.0,SSW,3.5,-,N/A,,Clear,200,2013-05-05 03:15:00
11:35 PM,39.2,32.0,75,30.32,10.0,SSW,4.6,-,N/A,,Clear,200,2013-05-05 03:35:00
11:55 PM,37.4,32.0,81,30.32,10.0,SSW,4.6,-,N/A,,Clear,210,2013-05-05 03:55:00